TimeEDT,TemperatureF,Dew PointF,Humidity,Sea Level PressureIn,VisibilityMPH,Wind Direction,Wind SpeedMPH,Gust SpeedMPH,PrecipitationIn,Events,Conditions,WindDirDegrees,DateUTC
12:58 AM,75.2,74.7,98,30.09,10.0,NNE,1.2,-,N/A,,Mostly Cloudy,20,2013-06-09 04:58:00
1:58 AM,75.2,74.8,99,30.08,10.0,ESE,3.5,-,N/A,,Mostly Cloudy,120,2013-06-09 05:58:00
2:58 AM,74.8,74.8,100,30.08,10.0,Calm,Calm,-,N/A,,Overcast,0,2013-06-09 06:58:00
3:58 AM,74.7,74.7,100,30.07,10.0,SE,3.5,-,N/A,,Mostly Cloudy,140,2013-06-09 07:58:00
4:58 AM,74.7,74.7,100,30.08,10.0,Calm,Calm,-,N/A,,Scattered Clouds,0,2013-06-09 08:58:00
5:58 AM,74.3,74.3,100,30.09,10.0,Calm,Calm,-,N/A,,Mostly Cloudy,0,2013-06-09 09:58:00
6:58 AM,74.1,74.1,100,30.10,10.0,Calm,Calm,-,N/A,,Mostly Cloudy,0,2013-06-09 10:58:00
7:58 AM,75.2,75.2,100,30.11,10.0,SE,3.5,-,N/A,,Mostly Cloudy,140,2013-06-09 11:58:00
8:58 AM,77.0,75.0,94,30.13,10.0,South,4.6,-,N/A,,Mostly Cloudy,190,2013-06-09 12:58:00
9:58 AM,80.1,73.9,81,30.13,10.0,SE,3.5,-,N/A,,Mostly Cloudy,140,2013-06-09 13:58:00
10:58 AM,82.9,73.8,74,30.12,10.0,West,1.2,-,N/A,,Mostly Cloudy,270,2013-06-09 14:58:00
11:58 AM,82.9,73.2,72,30.13,10.0,South,3.5,-,N/A,,Mostly Cloudy,170,2013-06-09 15:58:00
12:58 PM,85.3,75.0,71,30.11,10.0,SE,5.8,-,N/A,,Mostly Cloudy,140,2013-06-09 16:58:00
1:33 PM,86.0,75.2,70,30.09,10.0,Variable,5.8,-,N/A,,Overcast,0,2013-06-09 17:33:00
1:38 PM,86.0,75.2,70,30.09,10.0,South,9.2,-,N/A,,Mostly Cloudy,170,2013-06-09 17:38:00
1:58 PM,85.6,74.5,69,30.08,10.0,South,8.1,-,N/A,,Overcast,180,2013-06-09 17:58:00
2:58 PM,87.8,73.6,63,30.07,10.0,SSE,8.1,-,N/A,,Scattered Clouds,160,2013-06-09 18:58:00
3:58 PM,87.6,74.1,64,30.04,10.0,SE,10.4,-,N/A,,Partly Cloudy,140,2013-06-09 19:58:00
4:58 PM,87.3,71.8,60,30.05,10.0,South,9.2,-,N/A,,Mostly Cloudy,170,2013-06-09 20:58:00
5:58 PM,86.9,72.3,62,30.04,10.0,SSE,10.4,17.3,N/A,,Clear,150,2013-06-09 21:58:00
6:58 PM,82.2,74.1,76,30.07,10.0,South,8.1,-,N/A,,Mostly Cloudy,170,2013-06-09 22:58:00
7:02 PM,82.4,73.4,74,30.06,10.0,South,8.1,-,N/A,Rain,Light Rain,170,2013-06-09 23:02:00
7:24 PM,78.8,75.2,89,30.08,10.0,South,4.6,-,N/A,Thunderstorm,Overcast,170,2013-06-09 23:24:00
7:35 PM,78.8,75.2,89,30.08,10.0,South,5.8,-,N/A,Rain,Light Rain,180,2013-06-09 23:35:00
7:58 PM,78.8,75.4,89,30.09,10.0,South,8.1,-,0.00,Rain,Light Rain,170,2013-06-09 23:58:00
8:41 PM,77.0,77.0,100,30.08,10.0,Variable,3.5,-,N/A,,Mostly Cloudy,0,2013-06-10 00:41:00
8:58 PM,76.5,76.5,100,30.09,10.0,South,5.8,-,0.03,,Mostly Cloudy,170,2013-06-10 00:58:00
9:58 PM,76.1,76.1,100,30.09,10.0,SE,4.6,-,N/A,,Scattered Clouds,140,2013-06-10 01:58:00
10:58 PM,75.7,75.7,100,30.11,10.0,SSE,4.6,-,N/A,,Scattered Clouds,160,2013-06-10 02:58:00
11:58 PM,75.6,75.6,100,30.10,10.0,SE,4.6,-,N/A,,Scattered Clouds,130,2013-06-10 03:58:00